Flag for Serbia

Past Weather in Niš, Serbia — Yesterday and Last 2 Weeks

Now
73 °F

Passing clouds.


Feels Like: 76 °F
Forecast: 67 / 55 °F
Wind: 10 mph from North

Location: Nis Airport

Current Time: Jul 6, 2020 at 9:08:21 am

Latest Report: Jul 6, 2020 at 8:00 am


Visibility: N/A

Pressure: 29.86 "Hg

Humidity: 65%

Dew Point: 61 °F

Location of NišLocation

Past Weather in Niš — Graph

°F

Niš Temperature Yesterday

Maximum temperature yesterday: 79 °F (at 12:00 pm)
Minimum temperature yesterday: 64 °F (at 4:00 am)
Average temperature yesterday: 73 °F

High & Low Weather Summary for the Past Weeks

 TemperatureHumidityPressure
High93 °F (Jul 2, 4:30 pm)100% (Jun 22, 7:00 am)30.18 "Hg (Jun 22, 7:00 am)
Low55 °F (Jun 25, 5:00 am)30% (Jul 1, 3:00 pm)29.77 "Hg (Jul 2, 6:00 pm)
Average72 °F71%29.96 "Hg
* Reported Jun 21 8:00 am — Jul 6 8:00 am, Niš. Weather by CustomWeather, © 2020

Note: Actual official high and low records may vary slightly from our data, if they occured in-between our weather recording intervals... More about our weather records

Niš Weather History for the Previous 24 Hours

Scroll right to see more
 ConditionsComfort  
Time TempWeatherWind HumidityBarometerVisibility
8:00 am
Mon, Jul 6
73 °FPassing clouds.10 mph65%29.86 "HgN/A
7:30 am70 °FPassing clouds.5 mph78%29.86 "HgN/A
7:00 am68 °FSunny.1 mph83%29.86 "Hg10 mi
6:30 am66 °FSunny.2 mph83%29.86 "Hg10 mi
6:00 am64 °FSunny.2 mph88%29.86 "Hg10 mi
5:30 am64 °FSunny.1 mph88%29.86 "Hg10 mi
5:00 am68 °FPassing clouds.1 mph78%29.86 "HgN/A
4:30 am64 °FClear.2 mph88%29.86 "Hg10 mi
4:00 am66 °FClear.2 mph88%29.89 "Hg10 mi
3:30 am66 °FClear.2 mph83%29.89 "Hg10 mi
3:00 am66 °FClear.1 mph83%29.89 "Hg10 mi
2:30 am66 °FClear.1 mph88%29.89 "Hg10 mi
2:00 am66 °FClear.2 mph88%29.89 "Hg10 mi
1:30 am68 °FClear.2 mph83%29.89 "Hg10 mi
1:00 am68 °FClear.2 mph83%29.89 "Hg10 mi
12:30 am70 °FClear.3 mph83%29.92 "Hg10 mi
12:00 am70 °FPassing clouds.5 mph83%29.92 "HgN/A
11:30 pm
Sun, Jul 5
70 °FPassing clouds.3 mph88%29.92 "HgN/A
11:00 pm72 °FClear.3 mph83%29.92 "Hg10 mi
10:30 pm72 °FClear.3 mph83%29.89 "Hg10 mi
10:00 pm72 °FClear.6 mph83%29.89 "Hg10 mi
9:30 pm73 °FPassing clouds.3 mph78%29.89 "HgN/A
9:00 pm73 °FClear.5 mph78%29.89 "Hg10 mi
8:30 pm73 °FPassing clouds.6 mph78%29.89 "HgN/A
8:00 pm77 °FSunny.1 mph74%29.89 "Hg10 mi
7:30 pm77 °FPassing clouds.1 mph69%29.89 "HgN/A
7:00 pm77 °FPassing clouds.5 mph69%29.92 "HgN/A
6:30 pm77 °FPassing clouds.3 mph74%29.89 "HgN/A
6:00 pm75 °FPassing clouds.3 mph78%29.89 "HgN/A
5:30 pm75 °FSprinkles. Passing clouds.8 mph78%29.89 "HgN/A
5:00 pm75 °FPassing clouds.8 mph78%29.92 "HgN/A
4:30 pm77 °FLight rain. Passing clouds.12 mph69%29.92 "HgN/A
4:00 pm77 °FPassing clouds.13 mph69%29.92 "HgN/A
3:30 pm79 °FScattered clouds.10 mph65%29.92 "HgN/A
2:30 pm79 °FSprinkles. Scattered clouds.10 mph65%29.95 "HgN/A
2:00 pm77 °FScattered clouds.9 mph69%29.95 "HgN/A
1:30 pm79 °FThunderstorms. Scattered clouds.12 mph61%29.95 "HgN/A
1:00 pm79 °FScattered clouds.12 mph65%29.95 "HgN/A
12:30 pm79 °FPartly sunny.9 mph65%29.95 "HgN/A
12:00 pm79 °FPartly sunny.9 mph65%29.98 "HgN/A
11:30 am77 °FScattered clouds.9 mph69%29.98 "HgN/A
11:00 am77 °FScattered clouds.12 mph69%29.98 "HgN/A
10:30 am75 °FScattered clouds.12 mph69%29.98 "HgN/A
10:00 am77 °FScattered clouds.10 mph69%29.98 "HgN/A
9:30 am75 °FPassing clouds.10 mph69%29.98 "HgN/A
9:00 am73 °FPassing clouds.12 mph74%29.98 "HgN/A
Weather by CustomWeather, © 2020

See weather overview